Location: Newark
(42.8481°N, 0.4872°E)
Time: 09:01:20
(UTC+00:00)

Vanguard 2 - Pass Details

Date: 02 November 2020
Orbit: 554 x 2937 km, 32.9° (Epoch: 26 November)

Event Time Altitude Azimuth Distance (km) Brightness Sun altitude
Rises 19:25:45 0° 250° (WSW) 4,844 12.5 -29.2°
Reaches altitude 10° 19:28:34 10° 246° (WSW) 4,133 11.9 -29.7°
Maximum altitude 19:40:09 56° 172° (S) 2,774 10.1 -31.8°
Enters shadow 19:44:33 46° 129° (SE) 3,247 10.2 -32.6°
Drops below altitude 10° 19:56:45 10° 101° (E) 5,741 - -34.8°
Sets 20:01:28 0° 98° (E) 6,789 - -35.6°
